Regional Weather Roundup
Issued by NWS

Home | Current Version | Previous Version | Graphics & Text | Print | Product List | Glossary On
Versions: 1 2 3 4 5 6 7 8 9 10 11 12 13 14 15 16 17 18 19 20 21 22 23 24 25 26 27 28
000
ASUS45 KPSR 230510
RWRAZ

ARIZONA HOURLY REGIONAL WEATHER ROUNDUP
NATIONAL WEATHER SERVICE PHOENIX AZ
1000 PM MST MON JAN 22 2018

NOTE: FAIR INDICATES FEW OR NO CLOUDS BELOW 12,000 FEET WITH NO
SIGNIFICANT WEATHER AND/OR OBSTRUCTIONS TO VISIBILITY.

AZZ001>003-036-230600-
NORTHWEST ARIZONA

CITY           SKY/WX    TMP DP  RH WIND       PRES   REMARKS
BULLHEAD CITY  CLEAR     55  19  24 N18       30.21R
KINGMAN        CLEAR    N/A N/A N/A E9        30.23R
$$

AZZ004>008-015-016-018-230600-
NORTH CENTRAL ARIZONA

CITY           SKY/WX    TMP DP  RH WIND       PRES   REMARKS
GRAND CANYON   CLEAR     16  11  80 CALM      30.24R
WILLIAMS       CLEAR     21   9  58 S8        30.19S WCI  12
PRESCOTT       CLEAR     29  16  58 S7        30.20R WCI  22
FLAGSTAFF      CLEAR     13   4  67 CALM      30.22S
PAYSON         CLEAR     32   7  34 CALM      30.19R
PAGE           CLEAR     31  12  45 SW5       30.27S HAZE    WCI  26
$$

AZZ009>014-017-230600-
NORTHEAST ARIZONA

CITY           SKY/WX    TMP DP  RH WIND       PRES   REMARKS
WINSLOW        CLEAR     20   4  50 CALM      30.26R
SAINT JOHNS    CLEAR     21  11  65 S5        30.23R WCI  15
WINDOW ROCK    CLEAR     15  10  80 CALM      30.24R
SHOW LOW       CLEAR     19  12  73 CALM      30.24S
$$

AZZ540-542>544-546-548-230600-
GREATER PHOENIX AREA

CITY           SKY/WX    TMP DP  RH WIND       PRES   REMARKS
PHOENIX        CLEAR     53  20  27 NW5       30.14R
BUCKEYE        CLEAR     46  14  27 N8        30.16S
LUKE AFB       CLEAR     45  24  42 NE5       30.14R
DEER VALLEY    CLEAR     41  23  48 CALM      30.15R
SCOTTSDALE     CLEAR     47  24  40 CALM      30.16S
MESA-GATEWAY   PTCLDY    45  21  39 W6        30.16S
$$

AZZ539-553-230600-
SOUTHWEST MARICOPA COUNTY AND PINAL COUNTY

CITY           SKY/WX    TMP DP  RH WIND       PRES   REMARKS
CASA GRANDE    NOT AVBL
GILA BEND      FAIR      44  17  34 SE7       30.15S
$$

AZZ503-504-507>509-230600-
SOUTHEAST ARIZONA

CITY           SKY/WX    TMP DP  RH WIND       PRES   REMARKS
TUCSON         CLEAR     41  15  35 S3        30.15S
DAVIS-MONTHAN  CLEAR     37  16  41 S6        30.13S WCI  33
NOGALES        CLEAR     39   9  29 SE5       30.12S
SIERRA VISTA   CLEAR     34   8  33 CALM      30.15S
DOUGLAS        CLEAR     30   7  37 N9        30.15S WCI  22
SAFFORD        CLEAR     34  12  40 SE3       30.17S
$$

AZZ532-230600-
SOUTHWEST ARIZONA

CITY           SKY/WX    TMP DP  RH WIND       PRES   REMARKS
YUMA           CLEAR     53  21  28 NW6       30.17S
$$

CAZ041-043-047-048-061-525>527-560>570-230600-
SOUTHERN CALIFORNIA

CITY           SKY/WX    TMP DP  RH WIND       PRES   REMARKS
DOWNTOWN L.A.  CLEAR     54  38  54 CALM      30.16S
L.A. AIRPORT   CLEAR     58  42  55 CALM      30.17S
SAN DIEGO      CLEAR     55  41  59 CALM      30.18S
BURBANK        CLEAR     55  33  43 CALM      30.17R
ONTARIO        CLEAR     53  24  32 E3        30.17S
RIVERSIDE      CLEAR     54  22  28 E5        30.18R
PALM SPRINGS   CLEAR     55  25  31 VRB3      30.22R
EL CENTRO NAS  CLEAR     48  13  24 W6        30.19S
IMPERIAL       CLEAR     46  22  38 SW5       30.17S
BLYTHE         CLEAR     50  16  25 NW9       30.18S
NEEDLES        CLEAR     54  20  26 NW6       30.21R
$$

NVZ020-UTZ003-230600-
SOUTHERN NEVADA-UTAH

CITY           SKY/WX    TMP DP  RH WIND       PRES   REMARKS
LAS VEGAS      PTCLDY    46  27  47 SW3       30.25R
SALT LAKE CITY CLOUDY    32  26  78 S5        30.34R WCI  27
$$

NMZ009-TXZ055-230600-
NEW MEXICO-WEST TEXAS

CITY           SKY/WX    TMP DP  RH WIND       PRES   REMARKS
ALBUQUERQUE    CLEAR     32  12  43 N7        30.24R WCI  26
EL PASO        PTCLDY    39   7  26 N5        30.19S
$$


........................KEY........................
SKY/WX - SKY CONDITION/WEATHER
TMP    - TEMPERATURE IN FAHRENHEIT
DP     - DEW POINT IN FAHRENHEIT
RH     - RELATIVE HUMIDITY IN PERCENT
WIND   - DIRECTION AND SPEED IN MILES PER HOUR (MPH)
VRB    - VARIABLE WIND DIRECTION
PRES   - MEAN SEA LEVEL PRESSURE IN INCHES OF MERCURY
         F - FALLING PRESSURE   R - RISING PRESSURE
         S - STEADY PRESSURE
VSB    - VISIBILITY IN MILES
HX     - HEAT INDEX IN FAHRENHEIT
WCI    - WIND CHILL INDEX IN FAHRENHEIT
TC     - TEMPERATURE IN CELSIUS WHICH IS ALSO KNOWN AS
         TEMPERATURE IN CENTIGRADE
AFB    - AIR FORCE BASE
         LUKE AFB IS LUKE AIR FORCE BASE
         DAVIS-MONTHAN IS DAVIS-MONTHAN AIR FORCE BASE
NAS    - NAVAL AIR STATION
         EL CENTRO NAS IS EL CENTRO NAVAL AIR STATION
N/A    - NOT AVAILABLE





USA.gov is the U.S. government's official web portal to all federal, state and local government web resources and services.